Location: ????????
(55.6333°N, 37.7000°E)
Time: 13:23:43
(UTC+00:00)

NOSS 3-1 (C) - Pass Details

Date: 19 May 2025
Orbit: 625 x 1577 km, 63.4° (Epoch: 18 June)

Event Time Altitude Azimuth Distance (km) Brightness Sun altitude
Rises 20:21:07 0° 239° (WSW) 3,066 6.0 -13.2°
Reaches altitude 10° 20:23:16 10° 241° (WSW) 2,229 5.3 -13.3°
Maximum altitude 20:28:19 73° 327° (NNW) 879 3.4 -13.4°
Drops below altitude 10° 20:34:43 10° 53° (NE) 2,790 6.2 -13.6°
Sets 20:37:41 0° 55° (NE) 3,903 7.0 -13.7°
